Location: Battersea Observatory
(44.4318°N, 76.3841°W)
Time: 15:26:45
(UTC-04:00)

Tiros 1 - Pass Details

Date: 24 January 2022
Orbit: 629 x 663 km, 48.4° (Epoch: 27 May)

Event Time Altitude Azimuth Distance (km) Brightness Sun altitude
Exits shadow 05:02:51 36° 168° (SSE) 1,015 8.2 -26.5°
Drops below altitude 10° 05:05:59 10° 140° (SE) 2,030 10.2 -25.9°
Sets 05:08:21 0° 134° (SE) 2,931 11.2 -25.5°
